Terminal Aerodrome Forecast
Issued by NWS Louisville, KY

Home | Current Version | Previous Version | Text Only | Print | Product List | Glossary On
Versions: 1 2 3 4 5 6 7 8 9 10 11 12 13 14 15 16 17 18 19 20 21 22
000
FTUS43 KLMK 230300 AAB
TAFLEX
TAF AMD
KLEX 230349Z 2304/2324 14009KT P6SM VCSH BKN035 OVC080
     FM230500 15009KT 5SM -SHRA BR OVC030
     FM230800 17011KT 5SM BR VCSH OVC030
     FM231600 18008KT 5SM BR VCSH OVC025
     FM232100 14007KT 6SM BR VCSH OVC025=

USA.gov is the U.S. government's official web portal to all federal, state and local government web resources and services.